Regional Weather Roundup
Issued by NWS

Home | Current Version | Previous Version | Graphics & Text | Print | Product List | Glossary Off
Versions: 1 2 3 4 5 6 7 8 9 10 11 12 13 14 15 16 17 18 19 20 21 22 23 24 25 26 27 28 29 30 31 32 33 34 35 36 37 38 39 40 41 42 43 44 45 46 47 48 49 50

334
ASUS43 KFSD 270110
RWRSD

WEATHER ROUNDUP FOR SOUTH DAKOTA
NATIONAL WEATHER SERVICE SIOUX FALLS SD
800 PM CDT MON SEP 26 2016

NOTE: "FAIR" INDICATES FEW OR NO CLOUDS BELOW 12,000 FEET WITH NO
SIGNIFICANT WEATHER AND/OR OBSTRUCTIONS TO VISIBILITY.


SDZ001>005-009-010-012>017-270200-
NORTHWEST AND NORTH CENTRAL SOUTH DAKOTA

CITY           SKY/WX    TMP DP  RH WIND       PRES   REMARKS
BUFFALO          N/A     60  41  49 NW10      30.12S
FAITH            N/A     59  42  53 NW10      30.16R
MOBRIDGE       CLEAR     61  36  39 NW9       30.08S
$$

SDZ012>016-024>037-041>051-057-063-072>074-270200-
SOUTHWEST AND SOUTH CENTRAL SOUTH DAKOTA

CITY           SKY/WX    TMP DP  RH WIND       PRES   REMARKS
RAPID CTY ARPT CLEAR     61  40  45 N14       30.19S
PIERRE         CLEAR     61  38  42 N8        30.09R
CUSTER         CLEAR     55  38  52 W3        30.29S
ELLSWORTH AFB  CLEAR     65  40  39 N13       30.19S
PHILIP         CLEAR     62  40  44 NW8       30.14R
PINE RIDGE     CLEAR     63  40  42 N8        30.20R
WINNER         FAIR      68  40  35 N3        30.11R
$$

SDZ004>011-016>023-039-040-270200-
NORTHEAST SOUTH DAKOTA

CITY           SKY/WX    TMP DP  RH WIND       PRES   REMARKS
ABERDEEN       CLEAR     59  34  39 NW10      30.04S
WATERTOWN      CLEAR     59  36  42 NW9       30.02S
BROOKINGS      CLEAR     53  35  50 NW10      30.02S
SISSETON         N/A     58  33  39 NW13      29.97R
$$

SDZ017-020-022-023-036>040-048>070-270200-
SOUTHEAST SOUTH DAKOTA

CITY           SKY/WX    TMP DP  RH WIND       PRES   REMARKS
SIOUX FALLS    PTCLDY    58  39  49 W5        30.04R
HURON          CLEAR     54  33  45 NW7       30.05S
CHAMBERLAIN    CLEAR     63  41  45 NW6       30.09R
MITCHELL       CLEAR     58  36  43 NW8       30.06S
YANKTON        CLEAR     63  39  42 W9        30.06S
$$

ABBREVIATIONS USED IN REMARKS
   TC - TEMPERATURE IN CELSIUS
  WCI - WIND CHILL INDEX
   HX - HEAT INDEX
  VSB - VISIBILITY





USA.gov is the U.S. government's official web portal to all federal, state and local government web resources and services.